Location: Nashville
(36.1660°N, 86.7840°W)
Time: 01:04:16
(UTC-05:00)

Courier 1B Rocket - Visible Passes

Search period start: 10 August 2022 00:00
Search period end: 20 August 2022 00:00
Orbit: 920 x 1202 km, 28.2° (Epoch: 09 August)

Date Brightness Start Highest point End Pass type
(mag) Time Alt. Az. Time Alt. Az. Time Alt. Az.
10 Aug 6.1 21:26:04 10° WSW 21:31:52 31° SSW 21:33:58 27° SSE visible
11 Aug 5.9 20:25:01 10° WSW 20:30:55 36° S 20:36:28 13° SE visible
11 Aug 6.7 22:19:07 10° WSW 22:22:48 19° SW 22:22:48 19° SW visible
12 Aug 6.4 21:17:40 10° WSW 21:22:53 25° SSW 21:25:19 20° S visible
13 Aug 6.2 20:16:29 10° WSW 20:21:58 30° SSW 20:27:45 10° SE visible
13 Aug 7.1 22:11:45 10° SW 22:14:12 13° SSW 22:14:12 13° SSW visible
14 Aug 6.8 21:09:38 10° WSW 21:13:51 18° SSW 21:16:47 14° S visible
15 Aug 6.6 20:08:07 10° WSW 20:13:00 23° SSW 20:18:04 10° SSE visible
16 Aug 7.1 21:02:34 10° SW 21:04:49 12° SSW 21:07:07 10° S visible
17 Aug 6.9 20:00:10 10° WSW 20:03:59 17° SSW 20:07:55 10° SSE visible
19 Aug 7.3 19:53:33 10° SW 19:54:58 11° SSW 19:56:23 10° SSW visible
